Flag for Israel Weather past 2 weeks in Ramat Gan, Israel

Now
75 °F

Passing clouds.


Feels Like: 77 °F
Forecast: 67 / 78 °F
Wind: 9 mph from Southwest

Location: Dov Airport

Current Time: May 22, 2015 at 1:44:17 PM

Latest Report: May 22, 2015 at 12:50 PM


Visibility: N/A

Pressure: 29.92 "Hg

Humidity: 61%

Dew point: 61 °F

Location of Ramat GanLocation

Historic Weather in Ramat Gan — Graph

°F

Ramat Gan temperature yesterday

Maximum temperature yesterday: 75 °F (at 12:50 PM)
Minimum temperature yesterday: 70 °F (at 5:50 AM)
Average temperature yesterday: 72 °F

Past Weeks' High & Low Weather Summary

 TemperatureHumidityPressure
High104 °F (May 18, 12:50 PM)88% (May 7, 8:50 PM)30.15 "Hg (May 7, 8:50 PM)
Low63 °F (May 16, 5:50 AM)6% (May 18, 12:50 PM)29.62 "Hg (May 9, 5:50 PM)
Average74 °F67%29.86 "Hg
* Reported May 7 11:50 AM — May 22 11:50 AM, Ramat Gan, Weather by CustomWeather, © 2015

Note: Actual official high and low records may vary slightly from our data, if they occured in-between our weather recording intervals... More about our weather records

Advertising

Ramat Gan weather history for previous 24 hours

 ConditionsComfort  
Time TempWeatherWind HumidityBarometerVisibility
11:50 AM
Fri, May 22
75 °FPassing clouds.9 mph61%29.92 "HgN/A
10:50 AM73 °FPassing clouds.9 mph65%29.92 "HgN/A
9:50 AM75 °FPartly sunny.10 mph61%29.92 "HgN/A
8:50 AM72 °FScattered clouds.7 mph69%29.92 "HgN/A
7:50 AM70 °FScattered clouds.8 mph73%29.89 "HgN/A
6:50 AM70 °FPassing clouds.7 mph69%29.89 "HgN/A
5:50 AM70 °FPassing clouds.9 mph73%29.89 "HgN/A
10:50 PM
Thu, May 21
72 °FPassing clouds.8 mph69%29.92 "HgN/A
9:50 PM72 °FPassing clouds.9 mph69%29.92 "HgN/A
8:50 PM72 °FPassing clouds.8 mph69%29.92 "HgN/A
7:50 PM72 °FScattered clouds.9 mph69%29.92 "HgN/A
6:50 PM72 °FScattered clouds.10 mph73%29.89 "HgN/A
5:50 PM73 °FScattered clouds.13 mph69%29.89 "HgN/A
4:50 PM73 °FScattered clouds.9 mph69%29.89 "HgN/A
3:50 PM73 °FPassing clouds.9 mph69%29.89 "HgN/A
2:50 PM75 °FPassing clouds.10 mph65%29.92 "HgN/A
1:50 PM73 °FPassing clouds.12 mph69%29.92 "HgN/A
Weather by CustomWeather, © 2015

See weather overviewHow to use our weather pages